Weather History for Crestview, FL

Change the Weather History Date:

Thursday, August 29, 2013

  Actual Average Record
Temperature  
Mean Temperature 81 °F -  
Max Temperature 93 °F 92 °F 100 °F (1951)
Min Temperature 69 °F 69 °F 60 °F (1992)
Cooling Degree Days 16    
Growing Degree Days 31 (Base 50)    
Moisture  
Dew Point 68 °F    
Average Humidity 69    
Maximum Humidity 93    
Minimum Humidity 40    
Precipitation  
Precipitation 0.00 in - - ()
Sea Level Pressure  
Sea Level Pressure 30.02 in    
Wind  
Wind Speed 1 mph (NNW)    
Max Wind Speed 7 mph    
Max Gust Speed -    
Visibility 8 miles    
Events      
Averages and records for this station are not official NWS values.
T = Trace of Precipitation, MM = Missing Value Source: NWS Daily Summary

Daily Weather History Graph

Daily Weather History Graph

Search for Another Location

Airport:

Trip Planner

Search our weather history database for the weather conditions in past years. The results will help you decide how hot, cold, wet, or windy it might be!

Date:

Astronomy

Aug. 29, 2013 Rise Set
Actual Time 6:20 AM CDT 7:12 PM CDT
Civil Twilight 5:56 AM CDT 7:37 PM CDT
Nautical Twilight 5:27 AM CDT 8:06 PM CDT
Astronomical Twilight 4:57 AM CDT 8:35 PM CDT
Moon 12:23 AM CDT (8/29) 2:28 PM CDT (8/29)
Length of Visible Light 13h 40m
Length of Day
12h 51m
Last Quarter, 38% of the Moon is Illuminated
Aug 29
Last Quarter
Sep 5
New
Sep 12
First Quarter
Sep 19
Full
Sep 26
Last Quarter

Hourly Weather History & Observations

Time (CDT) Temp. Heat Index Dew Point Humidity Pressure Visibility Wind Dir Wind Speed Gust Speed Precip Events Conditions
12:53 AM 75.0 °F - 71.1 °F 87% 30.04 in 9.0 mi Calm Calm - N/A   Clear
1:53 AM 73.0 °F - 70.0 °F 90% 30.04 in 8.0 mi Calm Calm - N/A   Clear
2:53 AM 71.1 °F - 69.1 °F 93% 30.03 in 6.0 mi Calm Calm - N/A   Clear
3:53 AM 70.0 °F - 68.0 °F 93% 30.03 in 5.0 mi Calm Calm - N/A   Clear
4:53 AM 69.1 °F - 66.9 °F 93% 30.03 in 5.0 mi Calm Calm - N/A   Clear
5:53 AM 69.1 °F - 66.9 °F 93% 30.05 in 5.0 mi Calm Calm - N/A   Clear
6:53 AM 69.1 °F - 66.9 °F 93% 30.06 in 4.0 mi Calm Calm - N/A   Clear
7:53 AM 77.0 °F - 69.1 °F 76% 30.07 in 10.0 mi Calm Calm - N/A   Clear
8:53 AM 82.9 °F 85.0 °F 66.0 °F 56% 30.08 in 10.0 mi Calm Calm - N/A   Clear
9:53 AM 87.1 °F 89.9 °F 66.9 °F 51% 30.08 in 10.0 mi NNW 5.8 mph - N/A   Clear
10:53 AM 89.1 °F 92.1 °F 66.9 °F 48% 30.07 in 10.0 mi NW 6.9 mph - N/A   Clear
11:53 AM 88.0 °F 90.7 °F 66.9 °F 49% 30.06 in 10.0 mi NNW 5.8 mph - N/A   Scattered Clouds
12:53 PM 91.0 °F 94.3 °F 66.9 °F 45% 30.04 in 10.0 mi NNW 5.8 mph - N/A   Mostly Cloudy
1:53 PM 93.0 °F 96.4 °F 66.9 °F 42% 30.02 in 10.0 mi North 4.6 mph - N/A   Partly Cloudy
2:53 PM 91.9 °F 94.1 °F 64.9 °F 41% 29.99 in 10.0 mi Calm Calm - N/A   Partly Cloudy
3:53 PM 93.9 °F 97.0 °F 66.0 °F 40% 29.98 in 10.0 mi NW 5.8 mph - N/A   Clear
4:53 PM 91.9 °F 94.1 °F 64.9 °F 41% 29.98 in 8.0 mi NNW 5.8 mph - N/A   Clear
5:53 PM 91.0 °F 93.8 °F 66.0 °F 44% 29.97 in 9.0 mi Variable 3.5 mph - N/A   Clear
6:53 PM 86.0 °F 90.7 °F 70.0 °F 59% 29.99 in 8.0 mi Calm Calm - N/A   Clear
7:53 PM 79.0 °F - 72.0 °F 79% 29.99 in 8.0 mi Calm Calm - N/A   Clear
8:53 PM 75.9 °F - 70.0 °F 82% 29.99 in 5.0 mi Calm Calm - N/A   Haze
9:53 PM 75.0 °F - 71.1 °F 87% 29.99 in 8.0 mi Calm Calm - N/A   Clear
10:53 PM 73.9 °F - 71.1 °F 91% 29.99 in 7.0 mi Calm Calm - N/A   Clear
11:53 PM 73.9 °F - 71.1 °F 91% 29.99 in 6.0 mi Calm Calm - N/A   Clear